When you browse on this site, cookies collect data to enhance your experience and personalize the content and advertising you see.
Visit our Privacy Policy to learn more. By continuing to use the site, you agree to this use of cookies and data.
  • In Czech Republic
  • List of Countries
  • For 7 days
  • Water Temperature
  • Weather Map
  • Weather Widgets
  • user-avatar
    Login

    Hourly Weather Natitingou

    Today, 6 June, Saturday

    Time Temperature Precipitation Wind Pressure Humidity
    00:00 +28°C° 0 mm 1 mps 718 mmHg 74%
    01:00 +28°C° 0 mm 1 mps 718 mmHg 76%
    02:00 +27°C° 0 mm 1 mps 718 mmHg 77%
    03:00 +27°C° 0 mm 1 mps 718 mmHg 79%
    04:00 +26°C° 0 mm 1 mps 718 mmHg 81%
    05:00 +26°C° 0 mm 2 mps 718 mmHg 84%
    06:00 +26°C° 0 mm 2 mps 719 mmHg 86%
    07:00 +27°C° 0 mm 2 mps 719 mmHg 80%
    08:00 +28°C° 0 mm 3 mps 719 mmHg 75%
    09:00 +30°C° 0 mm 4 mps 720 mmHg 69%
    10:00 +31°C° 0 mm 3 mps 719 mmHg 63%
    11:00 +34°C° 0 mm 3 mps 719 mmHg 57%
    12:00 +35°C° 0 mm 3 mps 719 mmHg 52%
    13:00 +35°C° 0.1 mm 2 mps 718 mmHg 50%
    14:00 +36°C° 0.1 mm 2 mps 717 mmHg 49%
    15:00 +36°C° 0.1 mm 2 mps 716 mmHg 48%
    16:00 +34°C° 0.3 mm 2 mps 716 mmHg 53%
    17:00 +32°C° 0.3 mm 2 mps 716 mmHg 57%
    18:00 +31°C° 0.3 mm 2 mps 717 mmHg 62%
    19:00 +30°C° 0.9 mm 2 mps 717 mmHg 69%
    20:00 +28°C° 0.9 mm 2 mps 717 mmHg 76%
    21:00 +26°C° 0.9 mm 1 mps 718 mmHg 84%
    22:00 +26°C° 0 mm 2 mps 718 mmHg 84%
    23:00 +26°C° 0 mm 2 mps 718 mmHg 85%

    Tomorrow, 7 June, Sunday

    Time Temperature Precipitation Wind Pressure Humidity
    00:00 +26°C° 0 mm 2 mps 719 mmHg 86%
    01:00 +26°C° 1.9 mm 2 mps 719 mmHg 88%
    02:00 +25°C° 1.9 mm 1 mps 719 mmHg 90%
    03:00 +25°C° 1.9 mm 1 mps 718 mmHg 92%
    04:00 +25°C° 3.2 mm 2 mps 719 mmHg 92%
    05:00 +24°C° 3.2 mm 2 mps 719 mmHg 93%
    06:00 +24°C° 3.2 mm 3 mps 719 mmHg 93%
    07:00 +25°C° 0 mm 3 mps 719 mmHg 89%
    08:00 +26°C° 0 mm 4 mps 719 mmHg 85%
    09:00 +27°C° 0 mm 4 mps 720 mmHg 81%
    10:00 +28°C° 0 mm 3 mps 720 mmHg 75%
    11:00 +30°C° 0 mm 3 mps 720 mmHg 69%
    12:00 +31°C° 0 mm 2 mps 719 mmHg 63%
    13:00 +31°C° 0 mm 2 mps 719 mmHg 61%
    14:00 +33°C° 0 mm 3 mps 718 mmHg 59%
    15:00 +33°C° 0 mm 3 mps 717 mmHg 57%
    16:00 +31°C° 0 mm 2 mps 717 mmHg 61%
    17:00 +30°C° 0 mm 2 mps 717 mmHg 66%
    18:00 +29°C° 0 mm 1 mps 717 mmHg 71%
    19:00 +28°C° 0.1 mm 1 mps 717 mmHg 74%
    20:00 +27°C° 0.1 mm 1 mps 717 mmHg 76%
    21:00 +26°C° 0.1 mm 1 mps 718 mmHg 79%
    22:00 +26°C° 0.1 mm 1 mps 718 mmHg 80%
    23:00 +26°C° 0.1 mm 1 mps 718 mmHg 80%

    Day after tomorrow, 8 June, Monday

    Time Temperature Precipitation Wind Pressure Humidity
    00:00 +26°C° 0.1 mm 1 mps 718 mmHg 80%
    01:00 +26°C° 0 mm 1 mps 717 mmHg 81%
    02:00 +26°C° 0 mm 2 mps 717 mmHg 81%
    03:00 +25°C° 0 mm 2 mps 717 mmHg 82%
    04:00 +25°C° 0 mm 2 mps 717 mmHg 83%
    05:00 +25°C° 0 mm 2 mps 717 mmHg 84%
    06:00 +25°C° 0 mm 3 mps 717 mmHg 84%
    07:00 +26°C° 0 mm 3 mps 718 mmHg 82%
    08:00 +27°C° 0 mm 3 mps 718 mmHg 80%
    09:00 +27°C° 0 mm 3 mps 719 mmHg 78%
    10:00 +29°C° 0 mm 3 mps 719 mmHg 72%
    11:00 +30°C° 0 mm 3 mps 718 mmHg 67%
    12:00 +32°C° 0 mm 4 mps 718 mmHg 61%
    13:00 +31°C° 0 mm 3 mps 717 mmHg 60%
    14:00 +33°C° 0 mm 3 mps 716 mmHg 60%
    15:00 +33°C° 0 mm 3 mps 716 mmHg 59%
    16:00 +31°C° 0 mm 3 mps 716 mmHg 63%
    17:00 +30°C° 0 mm 2 mps 716 mmHg 66%
    18:00 +29°C° 0 mm 2 mps 716 mmHg 70%
    19:00 +28°C° 0 mm 2 mps 716 mmHg 73%
    20:00 +28°C° 0 mm 2 mps 716 mmHg 75%
    21:00 +27°C° 0 mm 1 mps 717 mmHg 78%
    22:00 +27°C° 0 mm 1 mps 717 mmHg 79%
    23:00 +27°C° 0 mm 1 mps 717 mmHg 79%

    9 June, Tuesday

    Time Temperature Precipitation Wind Pressure Humidity
    00:00 +26°C° 0 mm 1 mps 717 mmHg 79%
    01:00 +26°C° 0 mm 1 mps 717 mmHg 80%
    02:00 +26°C° 0 mm 2 mps 717 mmHg 81%
    03:00 +26°C° 0 mm 2 mps 717 mmHg 82%
    04:00 +25°C° 0.1 mm 2 mps 717 mmHg 84%
    05:00 +25°C° 0.1 mm 2 mps 717 mmHg 86%
    06:00 +25°C° 0.1 mm 2 mps 717 mmHg 88%
    07:00 +26°C° 0 mm 3 mps 718 mmHg 83%
    08:00 +27°C° 0 mm 4 mps 718 mmHg 77%
    09:00 +29°C° 0 mm 4 mps 718 mmHg 72%
    10:00 +30°C° 0 mm 4 mps 718 mmHg 66%
    11:00 +33°C° 0 mm 4 mps 718 mmHg 60%
    12:00 +35°C° 0 mm 3 mps 718 mmHg 54%
    13:00 +35°C° 0 mm 3 mps 717 mmHg 52%
    14:00 +35°C° 0 mm 3 mps 716 mmHg 50%
    15:00 +36°C° 0 mm 3 mps 716 mmHg 48%
    16:00 +35°C° 0 mm 3 mps 716 mmHg 53%
    17:00 +32°C° 0 mm 2 mps 716 mmHg 58%
    18:00 +31°C° 0 mm 2 mps 716 mmHg 62%
    19:00 +30°C° 1.1 mm 2 mps 716 mmHg 68%
    20:00 +28°C° 1.1 mm 1 mps 717 mmHg 75%
    21:00 +27°C° 1.1 mm 1 mps 717 mmHg 81%
    22:00 +27°C° 2.3 mm 1 mps 717 mmHg 83%
    23:00 +26°C° 2.3 mm 2 mps 717 mmHg 85%

    10 June, Wednesday

    Time Temperature Precipitation Wind Pressure Humidity
    00:00 +26°C° 2.3 mm 2 mps 717 mmHg 87%
    01:00 +26°C° 0 mm 2 mps 717 mmHg 88%
    02:00 +26°C° 0 mm 1 mps 717 mmHg 88%
    03:00 +26°C° 0 mm 1 mps 717 mmHg 89%
    04:00 +25°C° 0 mm 2 mps 717 mmHg 90%
    05:00 +25°C° 0 mm 2 mps 717 mmHg 90%
    06:00 +25°C° 0 mm 2 mps 717 mmHg 91%
    07:00 +26°C° 0 mm 2 mps 718 mmHg 85%
    08:00 +27°C° 0 mm 2 mps 719 mmHg 79%
    09:00 +29°C° 0 mm 2 mps 719 mmHg 74%
    10:00 +30°C° 0 mm 3 mps 719 mmHg 69%
    11:00 +31°C° 0 mm 3 mps 719 mmHg 65%
    12:00 +33°C° 0 mm 3 mps 718 mmHg 60%
    13:00 +33°C° 0 mm 3 mps 717 mmHg 61%
    14:00 +33°C° 0 mm 3 mps 717 mmHg 61%
    15:00 +32°C° 0 mm 4 mps 716 mmHg 62%
    16:00 +30°C° 0 mm 3 mps 716 mmHg 66%
    17:00 +29°C° 0 mm 2 mps 716 mmHg 70%
    18:00 +28°C° 0 mm 1 mps 716 mmHg 74%
    19:00 +28°C° 0 mm 1 mps 716 mmHg 74%
    20:00 +28°C° 0 mm 1 mps 717 mmHg 75%
    21:00 +27°C° 0 mm 1 mps 718 mmHg 76%
    22:00 +27°C° 0 mm 1 mps 718 mmHg 77%
    23:00 +27°C° 0 mm 1 mps 717 mmHg 78%

    11 June, Thursday

    Time Temperature Precipitation Wind Pressure Humidity
    00:00 +27°C° 0 mm 1 mps 717 mmHg 79%
    01:00 +26°C° 0 mm 2 mps 717 mmHg 80%
    02:00 +26°C° 0 mm 2 mps 717 mmHg 81%
    03:00 +26°C° 0 mm 2 mps 717 mmHg 83%
    04:00 +25°C° 0.9 mm 2 mps 717 mmHg 86%
    05:00 +25°C° 0.9 mm 2 mps 717 mmHg 89%
    06:00 +24°C° 0.9 mm 2 mps 718 mmHg 92%
    07:00 +25°C° 0.1 mm 2 mps 718 mmHg 88%
    08:00 +26°C° 0.1 mm 3 mps 718 mmHg 84%
    09:00 +27°C° 0.1 mm 4 mps 719 mmHg 81%
    10:00 +29°C° 0 mm 4 mps 718 mmHg 75%
    11:00 +30°C° 0 mm 4 mps 718 mmHg 68%
    12:00 +33°C° 0 mm 4 mps 717 mmHg 62%
    13:00 +33°C° 0 mm 4 mps 717 mmHg 61%
    14:00 +34°C° 0 mm 3 mps 716 mmHg 60%
    15:00 +34°C° 0 mm 3 mps 716 mmHg 59%
    16:00 +33°C° 0 mm 3 mps 716 mmHg 63%
    17:00 +31°C° 0 mm 2 mps 716 mmHg 67%
    18:00 +30°C° 0 mm 1 mps 716 mmHg 71%
    19:00 +29°C° 0.1 mm 2 mps 716 mmHg 74%
    20:00 +28°C° 0.1 mm 2 mps 716 mmHg 76%
    21:00 +28°C° 0.1 mm 2 mps 717 mmHg 79%
    22:00 +27°C° 0.5 mm 2 mps 717 mmHg 81%
    23:00 +27°C° 0.5 mm 3 mps 717 mmHg 82%
    Show more